Colwell, IA

5:56 AM CST on December 10, 2016 (GMT -0600)
Charles City Municipal

Weather History for KCCY - January, 2013

Change the Weather History Date:

Tuesday, January 15, 2013

  Actual Average Record
Temperature  
Mean Temperature 21 °F -  
Max Temperature 32 °F 24 °F 53 °F (1990)
Min Temperature 10 °F 6 °F -31 °F (1963)
Degree Days  
Heating Degree Days 44    
Moisture  
Dew Point 11 °F    
Average Humidity 67    
Maximum Humidity 79    
Minimum Humidity 44    
Precipitation  
Precipitation 0.00 in - - ()
Sea Level Pressure  
Sea Level Pressure 30.20 in    
Wind  
Wind Speed 10 mph (SSW)    
Max Wind Speed 16 mph    
Max Gust Speed 22 mph    
Visibility 10 miles    
Events      
Averages and records for this station are not official NWS values.
T = Trace of Precipitation, MM = Missing Value Source: NWS Daily Summary

Daily Weather History Graph

Daily Weather History Graph

Search for Another Location

Airport or City:

Trip Planner

Search our weather history database for the weather conditions in past years. The results will help you decide how hot, cold, wet, or windy it might be!

Date:

Astronomy

Jan. 15, 2013 Rise Set
Actual Time 7:38 AM CST 5:01 PM CST
Civil Twilight 7:07 AM CST 5:32 PM CST
Nautical Twilight 6:32 AM CST 6:07 PM CST
Astronomical Twilight 5:58 AM CST 6:41 PM CST
Moon 9:36 AM CST (1/15) 10:00 PM CST (1/15)
Length of Visible Light 10h 25m
Length of Day
9h 22m
Waxing Crescent, 19% of the Moon is Illuminated
Jan 15
Waxing Crescent
Jan 18
First Quarter
Jan 26
Full
Feb 3
Last Quarter
Feb 10
New

Hourly Weather History & Observations

Time (CST) Temp. Windchill Dew Point Humidity Pressure Visibility Wind Dir Wind Speed Gust Speed Precip Events Conditions
12:15 AM 12.2 °F 1.7 °F 6.8 °F 79% 30.34 in 10.0 mi South 6.9 mph - N/A   Clear
12:35 AM 12.2 °F 0.7 °F 6.8 °F 79% 30.34 in 10.0 mi South 8.1 mph - N/A   Clear
12:55 AM 12.2 °F 0.7 °F 6.8 °F 79% 30.33 in 10.0 mi South 8.1 mph - N/A   Clear
1:15 AM 12.2 °F 1.7 °F 6.8 °F 79% 30.33 in 10.0 mi SSW 6.9 mph - N/A   Clear
1:35 AM 12.2 °F 1.7 °F 6.8 °F 79% 30.33 in 10.0 mi South 6.9 mph - N/A   Clear
2:15 AM 12.2 °F 0.7 °F 6.8 °F 79% 30.33 in 10.0 mi South 8.1 mph - N/A   Clear
2:35 AM 12.2 °F -0.2 °F 6.8 °F 79% 30.33 in 10.0 mi South 9.2 mph - N/A   Clear
2:55 AM 12.2 °F -0.2 °F 6.8 °F 79% 30.33 in 10.0 mi South 9.2 mph - N/A   Clear
3:55 AM 12.2 °F -1.0 °F 6.8 °F 79% 30.31 in 10.0 mi South 10.4 mph - N/A   Clear
4:15 AM 12.2 °F -1.0 °F 6.8 °F 79% 30.31 in - South 10.4 mph - N/A   Clear
4:55 AM 12.2 °F -0.2 °F 5.0 °F 73% 30.30 in 10.0 mi South 9.2 mph - N/A   Clear
5:15 AM 12.2 °F -0.2 °F 5.0 °F 73% 30.29 in 10.0 mi South 9.2 mph - N/A   Clear
5:35 AM 12.2 °F 0.7 °F 5.0 °F 73% 30.29 in 10.0 mi South 8.1 mph - N/A   Clear
6:15 AM 12.2 °F -0.2 °F 5.0 °F 73% 30.29 in 10.0 mi South 9.2 mph - N/A   Clear
6:35 AM 12.2 °F 1.7 °F 5.0 °F 73% 30.29 in 10.0 mi South 6.9 mph - N/A   Clear
6:55 AM 12.2 °F 0.7 °F 5.0 °F 73% 30.28 in 10.0 mi South 8.1 mph - N/A   Clear
7:15 AM 12.2 °F -1.0 °F 5.0 °F 73% 30.28 in 10.0 mi South 10.4 mph - N/A   Clear
7:35 AM 12.2 °F -1.0 °F 5.0 °F 73% 30.28 in 10.0 mi South 10.4 mph - N/A   Clear
7:55 AM 10.4 °F 0.8 °F 5.0 °F 79% 30.28 in 10.0 mi South 5.8 mph - N/A   Clear
8:15 AM 12.2 °F 2.9 °F 5.0 °F 73% 30.29 in 10.0 mi South 5.8 mph - N/A   Partly Cloudy
8:35 AM 14.0 °F 2.0 °F 6.8 °F 73% 30.29 in 10.0 mi South 9.2 mph - N/A   Partly Cloudy
8:55 AM 15.8 °F 3.4 °F 8.6 °F 73% 30.30 in 10.0 mi South 10.4 mph - N/A   Scattered Clouds
9:15 AM 15.8 °F 3.4 °F 10.4 °F 79% 30.30 in 10.0 mi South 10.4 mph - N/A   Clear
9:35 AM 19.4 °F 7.9 °F 10.4 °F 68% 30.30 in 10.0 mi SSW 10.4 mph - N/A   Clear
9:55 AM 19.4 °F 7.9 °F 12.2 °F 74% 30.29 in 10.0 mi SSW 10.4 mph 17.3 mph N/A   Clear
10:15 AM 21.2 °F 8.3 °F 12.2 °F 68% 30.28 in 10.0 mi SW 13.8 mph - N/A   Clear
10:35 AM 23.0 °F 10.1 °F 14.0 °F 68% 30.28 in 10.0 mi SW 15.0 mph - N/A   Clear
10:55 AM 24.8 °F 13.4 °F 14.0 °F 64% 30.27 in 10.0 mi SSW 12.7 mph - N/A   Clear
11:15 AM 24.8 °F 13.4 °F 14.0 °F 64% 30.26 in 10.0 mi SW 12.7 mph - N/A   Clear
11:35 AM 26.6 °F 16.2 °F 14.0 °F 59% 30.26 in 10.0 mi SW 11.5 mph - N/A   Clear
12:15 PM 28.4 °F 18.0 °F 14.0 °F 55% 30.24 in 10.0 mi SW 12.7 mph - N/A   Scattered Clouds
12:35 PM 28.4 °F 17.5 °F 14.0 °F 55% 30.23 in 10.0 mi SW 13.8 mph - N/A   Clear
12:55 PM 30.2 °F 21.3 °F 14.0 °F 51% 30.21 in 10.0 mi SW 10.4 mph 17.3 mph N/A   Clear
1:15 PM 30.2 °F 19.8 °F 14.0 °F 51% 30.20 in 10.0 mi SSW 13.8 mph - N/A   Clear
1:35 PM 30.2 °F 19.8 °F 14.0 °F 51% 30.19 in 10.0 mi SSW 13.8 mph - N/A   Clear
1:55 PM 30.2 °F 18.9 °F 14.0 °F 51% 30.18 in - SSW 16.1 mph - N/A   Clear
2:15 PM 32.0 °F 22.1 °F 14.0 °F 48% 30.18 in 10.0 mi SSW 13.8 mph - N/A   Clear
2:35 PM 32.0 °F 21.6 °F 12.2 °F 44% 30.18 in 10.0 mi SSW 15.0 mph - N/A   Clear
2:55 PM 32.0 °F 21.6 °F 14.0 °F 48% 30.18 in 10.0 mi SSW 15.0 mph - N/A   Clear
3:15 PM 30.2 °F 18.9 °F 14.0 °F 51% 30.17 in 10.0 mi SSW 16.1 mph - N/A   Clear
3:35 PM 30.2 °F 20.2 °F 14.0 °F 51% 30.17 in 10.0 mi SSW 12.7 mph 19.6 mph N/A   Clear
3:55 PM 30.2 °F 19.3 °F 14.0 °F 51% 30.16 in 10.0 mi SSW 15.0 mph - N/A   Clear
4:15 PM 30.2 °F 20.2 °F 14.0 °F 51% 30.16 in 10.0 mi SSW 12.7 mph - N/A   Clear
4:35 PM 28.4 °F 18.0 °F 14.0 °F 55% 30.15 in 10.0 mi South 12.7 mph - N/A   Clear
4:55 PM 28.4 °F 17.5 °F 14.0 °F 55% 30.15 in 10.0 mi South 13.8 mph - N/A   Clear
5:35 PM 26.6 °F 16.2 °F 14.0 °F 59% 30.14 in 10.0 mi South 11.5 mph - N/A   Clear
5:55 PM 24.8 °F 14.6 °F 14.0 °F 64% 30.14 in 10.0 mi South 10.4 mph - N/A   Clear
6:15 PM 24.8 °F 14.6 °F 14.0 °F 64% 30.14 in 10.0 mi South 10.4 mph - N/A   Clear
6:35 PM 23.0 °F 11.7 °F 14.0 °F 68% 30.13 in 10.0 mi South 11.5 mph - N/A   Clear
6:55 PM 23.0 °F 11.1 °F 14.0 °F 68% 30.12 in 10.0 mi South 12.7 mph - N/A   Clear
7:15 PM 23.0 °F 11.1 °F 14.0 °F 68% 30.11 in 10.0 mi South 12.7 mph - N/A   Clear
7:35 PM 23.0 °F 11.7 °F 14.0 °F 68% 30.11 in 10.0 mi South 11.5 mph - N/A   Clear
7:55 PM 23.0 °F 13.1 °F 14.0 °F 68% 30.10 in 10.0 mi South 9.2 mph 21.9 mph N/A   Clear
8:15 PM 21.2 °F 9.5 °F 14.0 °F 74% 30.09 in 10.0 mi South 11.5 mph - N/A   Clear
8:35 PM 21.2 °F 8.3 °F 14.0 °F 74% 30.07 in 10.0 mi South 13.8 mph - N/A   Clear
8:55 PM 21.2 °F 8.9 °F 14.0 °F 74% 30.06 in 10.0 mi South 12.7 mph - N/A   Clear
9:15 PM 21.2 °F 9.5 °F 12.2 °F 68% 30.06 in 10.0 mi South 11.5 mph - N/A   Clear
9:35 PM 21.2 °F 10.1 °F 12.2 °F 68% 30.05 in 10.0 mi SSW 10.4 mph - N/A   Clear
9:55 PM 21.2 °F 9.5 °F 12.2 °F 68% 30.04 in 10.0 mi SSW 11.5 mph - N/A   Clear
10:15 PM 21.2 °F 9.5 °F 12.2 °F 68% 30.02 in 10.0 mi SSW 11.5 mph - N/A   Clear
10:35 PM 21.2 °F 8.3 °F 12.2 °F 68% 30.01 in 10.0 mi SSW 13.8 mph - N/A   Clear
10:55 PM 21.2 °F 9.5 °F 12.2 °F 68% 30.01 in 10.0 mi SSW 11.5 mph - N/A   Clear
11:15 PM 21.2 °F 8.9 °F 12.2 °F 68% 30.00 in 10.0 mi SSW 12.7 mph - N/A   Clear
11:35 PM 21.2 °F 7.8 °F 12.2 °F 68% 29.98 in 10.0 mi SSW 15.0 mph - N/A   Clear